José Martí International Airport
MUHA : now visible

Airfield :











YOU CAN JOIN US ON...

 
LOGIN :

Register | Disclaimer

   EN    FR    IT 

 









Legend :    VFR   Marginal VFR   IFR   Intensive IFR   Very Intensive IFR
Visi :
Ceiling :
>= 8 km
>= 3000ft
5 to 8 km
1000 to 3000 ft
1500m to 5 km
500 to 1000 ft
800 to 1500m
200 to 500 ft
< 800m
< 200 ft
Symbols :   Thunderstorms  Fog  Heavy snow  Heavy precipitations  Wind > 20 kt






- Airport Elevation : 210 ft
- IATA code : HAV


MUHA - José Martí International

CURRENT METAR :
  • 231555Z 04007KT 010V090 9999 SCT030 31/23 Q1020

EXPIRED METARs :
  • 231455Z 02004KT 300V070 9999 SCT025 31/25 Q1019
  • 231355Z VRB02KT 9999 FEW025TCU 30/24 Q1019

TAF MUHA
Valid from the 23 at 12:00 until the 24 at 12:00 UTC


231100Z 2312/2412 VRB03KT 9000 SCT030
BECMG 2314/2316 02010KT
PROB30
TEMPO 2321/2401 VRB10KT 4000 SHRA FEW020CB BKN030
BECMG 2402/2404 08006KT
MUFH FIR / North America



MET'MAP, your aeronautical weather chart ! - Copyright ORBIFLY December 2007 - Disclaimer

ORBIFLY MET'MAP TEAM :

Programming & Development : Alexandra Zaïnal
Concept & original design : Baudouin d'Aumeries
Assistance for programming : Marc-Olivier Méhu
Technical & hardware support : Manuel Goepfert

Contact : metmap@orbifly.com




SOURCES & CREDITS :

   NOAA       Earth
Advisory